When you browse on this site, cookies collect data to enhance your experience and personalize the content and advertising you see.
Visit our Privacy Policy to learn more. By continuing to use the site, you agree to this use of cookies and data.
  • In Romania
  • List of Countries
  • For 7 days
  • Water Temperature
  • Satellite Maps
  • Weather Map
  • Weather Widgets
  • user-avatar
    Login

    Hourly Weather Sidi Bu-l-Abbas

    Today, 17 June, Monday

    Time Temperature Precipitation Wind Pressure Humidity
    00:00 +18°C° 0 mm 3 mps 721 mmHg 91%
    01:00 +18°C° 0 mm 3 mps 721 mmHg 90%
    02:00 +18°C° 0 mm 3 mps 721 mmHg 89%
    03:00 +18°C° 0 mm 2 mps 721 mmHg 87%
    04:00 +18°C° 0 mm 2 mps 721 mmHg 86%
    05:00 +18°C° 0 mm 2 mps 721 mmHg 84%
    06:00 +19°C° 0 mm 2 mps 721 mmHg 83%
    07:00 +19°C° 0 mm 2 mps 721 mmHg 79%
    08:00 +21°C° 0 mm 1 mps 721 mmHg 75%
    09:00 +21°C° 0 mm 1 mps 721 mmHg 71%
    10:00 +23°C° 0 mm 2 mps 721 mmHg 61%
    11:00 +26°C° 0 mm 3 mps 721 mmHg 51%
    12:00 +28°C° 0 mm 3 mps 721 mmHg 41%
    13:00 +28°C° 0 mm 4 mps 721 mmHg 41%
    14:00 +29°C° 0 mm 5 mps 721 mmHg 40%
    15:00 +30°C° 0 mm 5 mps 720 mmHg 40%
    16:00 +29°C° 0 mm 5 mps 720 mmHg 43%
    17:00 +28°C° 0 mm 4 mps 720 mmHg 46%
    18:00 +27°C° 0 mm 4 mps 720 mmHg 49%
    19:00 +26°C° 0 mm 3 mps 720 mmHg 57%
    20:00 +24°C° 0 mm 2 mps 720 mmHg 64%
    21:00 +22°C° 0 mm 1 mps 720 mmHg 71%
    22:00 +22°C° 0 mm 1 mps 720 mmHg 73%
    23:00 +22°C° 0 mm 1 mps 720 mmHg 75%

    Tomorrow, 18 June, Tuesday

    Time Temperature Precipitation Wind Pressure Humidity
    00:00 +19°C° 0 mm 0 mps 720 mmHg 77%
    01:00 +19°C° 0 mm 0 mps 720 mmHg 77%
    02:00 +18°C° 0 mm 0 mps 719 mmHg 78%
    03:00 +18°C° 0 mm 0 mps 719 mmHg 79%
    04:00 +18°C° 0 mm 0 mps 719 mmHg 76%
    05:00 +19°C° 0 mm 0 mps 719 mmHg 73%
    06:00 +20°C° 0 mm 0 mps 720 mmHg 71%
    07:00 +24°C° 0 mm 1 mps 720 mmHg 62%
    08:00 +26°C° 0 mm 1 mps 720 mmHg 54%
    09:00 +27°C° 0 mm 2 mps 721 mmHg 46%
    10:00 +29°C° 0 mm 2 mps 721 mmHg 41%
    11:00 +31°C° 0 mm 3 mps 721 mmHg 37%
    12:00 +33°C° 0 mm 4 mps 721 mmHg 32%
    13:00 +33°C° 0 mm 5 mps 720 mmHg 33%
    14:00 +33°C° 0 mm 5 mps 720 mmHg 34%
    15:00 +32°C° 0 mm 6 mps 719 mmHg 35%
    16:00 +30°C° 0 mm 5 mps 719 mmHg 38%
    17:00 +29°C° 0 mm 4 mps 719 mmHg 41%
    18:00 +28°C° 0 mm 3 mps 719 mmHg 44%
    19:00 +26°C° 0 mm 3 mps 719 mmHg 48%
    20:00 +25°C° 0 mm 2 mps 719 mmHg 53%
    21:00 +24°C° 0 mm 1 mps 719 mmHg 57%
    22:00 +23°C° 0 mm 1 mps 720 mmHg 59%
    23:00 +23°C° 0 mm 1 mps 720 mmHg 61%

    Day after tomorrow, 19 June, Wednesday

    Time Temperature Precipitation Wind Pressure Humidity
    00:00 +22°C° 0 mm 1 mps 720 mmHg 62%
    01:00 +22°C° 0 mm 1 mps 719 mmHg 64%
    02:00 +21°C° 0 mm 1 mps 719 mmHg 66%
    03:00 +21°C° 0 mm 1 mps 719 mmHg 68%
    04:00 +21°C° 0 mm 1 mps 719 mmHg 66%
    05:00 +22°C° 0 mm 1 mps 719 mmHg 64%
    06:00 +22°C° 0 mm 1 mps 720 mmHg 62%
    07:00 +24°C° 0 mm 1 mps 720 mmHg 51%
    08:00 +26°C° 0 mm 2 mps 720 mmHg 41%
    09:00 +28°C° 0 mm 2 mps 720 mmHg 30%
    10:00 +30°C° 0 mm 3 mps 720 mmHg 28%
    11:00 +31°C° 0 mm 3 mps 720 mmHg 25%
    12:00 +34°C° 0 mm 4 mps 720 mmHg 22%
    13:00 +34°C° 0 mm 5 mps 719 mmHg 24%
    14:00 +33°C° 0 mm 6 mps 719 mmHg 25%
    15:00 +33°C° 0 mm 6 mps 718 mmHg 26%
    16:00 +32°C° 0 mm 6 mps 718 mmHg 30%
    17:00 +29°C° 0 mm 5 mps 718 mmHg 33%
    18:00 +28°C° 0 mm 5 mps 718 mmHg 36%
    19:00 +27°C° 0 mm 3 mps 718 mmHg 39%
    20:00 +26°C° 0 mm 2 mps 718 mmHg 41%
    21:00 +24°C° 0 mm 1 mps 719 mmHg 44%
    22:00 +24°C° 0 mm 1 mps 719 mmHg 45%
    23:00 +23°C° 0 mm 2 mps 719 mmHg 45%

    20 June, Thursday

    Time Temperature Precipitation Wind Pressure Humidity
    00:00 +23°C° 0 mm 2 mps 719 mmHg 46%
    01:00 +21°C° 0 mm 2 mps 718 mmHg 46%
    02:00 +21°C° 0 mm 2 mps 718 mmHg 47%
    03:00 +21°C° 0 mm 1 mps 718 mmHg 48%
    04:00 +22°C° 0 mm 1 mps 718 mmHg 47%
    05:00 +22°C° 0 mm 1 mps 718 mmHg 46%
    06:00 +22°C° 0 mm 1 mps 719 mmHg 45%
    07:00 +24°C° 0 mm 1 mps 719 mmHg 40%
    08:00 +26°C° 0 mm 2 mps 719 mmHg 35%
    09:00 +27°C° 0 mm 2 mps 719 mmHg 30%
    10:00 +29°C° 0 mm 3 mps 719 mmHg 29%
    11:00 +30°C° 0 mm 4 mps 719 mmHg 28%
    12:00 +32°C° 0 mm 5 mps 719 mmHg 27%
    13:00 +30°C° 0 mm 6 mps 718 mmHg 28%
    14:00 +30°C° 0 mm 7 mps 718 mmHg 30%
    15:00 +29°C° 0 mm 8 mps 717 mmHg 31%
    16:00 +28°C° 0 mm 7 mps 717 mmHg 30%
    17:00 +27°C° 0 mm 6 mps 717 mmHg 30%
    18:00 +26°C° 0 mm 5 mps 717 mmHg 30%
    19:00 +25°C° 0 mm 4 mps 718 mmHg 32%
    20:00 +25°C° 0 mm 3 mps 718 mmHg 33%
    21:00 +24°C° 0 mm 1 mps 718 mmHg 35%
    22:00 +23°C° 0 mm 2 mps 718 mmHg 36%
    23:00 +23°C° 0 mm 2 mps 719 mmHg 37%

    21 June, Friday

    Time Temperature Precipitation Wind Pressure Humidity
    00:00 +21°C° 0 mm 2 mps 719 mmHg 38%
    01:00 +20°C° 0 mm 2 mps 718 mmHg 41%
    02:00 +21°C° 0 mm 1 mps 718 mmHg 44%
    03:00 +20°C° 0 mm 1 mps 718 mmHg 47%
    04:00 +21°C° 0 mm 1 mps 718 mmHg 46%
    05:00 +21°C° 0 mm 1 mps 718 mmHg 45%
    06:00 +22°C° 0 mm 1 mps 719 mmHg 44%
    07:00 +24°C° 0 mm 3 mps 719 mmHg 41%
    08:00 +25°C° 0 mm 4 mps 719 mmHg 39%
    09:00 +27°C° 0 mm 6 mps 720 mmHg 37%
    10:00 +28°C° 0 mm 7 mps 720 mmHg 34%
    11:00 +29°C° 0 mm 7 mps 719 mmHg 31%
    12:00 +31°C° 0 mm 8 mps 719 mmHg 28%
    13:00 +31°C° 0 mm 8 mps 719 mmHg 28%
    14:00 +31°C° 0 mm 8 mps 719 mmHg 28%
    15:00 +29°C° 0 mm 8 mps 718 mmHg 28%
    16:00 +28°C° 0 mm 7 mps 718 mmHg 31%
    17:00 +27°C° 0 mm 6 mps 719 mmHg 34%
    18:00 +26°C° 0 mm 5 mps 719 mmHg 37%
    19:00 +25°C° 0 mm 4 mps 719 mmHg 40%
    20:00 +22°C° 0 mm 3 mps 719 mmHg 44%
    21:00 +22°C° 0 mm 1 mps 720 mmHg 47%
    22:00 +22°C° 0 mm 1 mps 720 mmHg 46%
    23:00 +21°C° 0 mm 1 mps 720 mmHg 46%

    22 June, Saturday

    Time Temperature Precipitation Wind Pressure Humidity
    00:00 +21°C° 0 mm 1 mps 719 mmHg 45%
    01:00 +20°C° 0 mm 1 mps 719 mmHg 45%
    02:00 +20°C° 0 mm 1 mps 719 mmHg 44%
    03:00 +19°C° 0 mm 1 mps 718 mmHg 43%
    04:00 +20°C° 0 mm 1 mps 719 mmHg 41%
    05:00 +19°C° 0 mm 0 mps 719 mmHg 39%
    06:00 +20°C° 0 mm 0 mps 719 mmHg 37%
    07:00 +24°C° 0 mm 1 mps 719 mmHg 33%
    08:00 +25°C° 0 mm 1 mps 719 mmHg 29%
    09:00 +27°C° 0 mm 2 mps 720 mmHg 25%
    10:00 +29°C° 0 mm 3 mps 719 mmHg 23%
    11:00 +30°C° 0 mm 3 mps 719 mmHg 22%
    12:00 +33°C° 0 mm 4 mps 719 mmHg 21%
    13:00 +33°C° 0 mm 5 mps 719 mmHg 22%
    14:00 +33°C° 0 mm 5 mps 718 mmHg 23%
    15:00 +34°C° 0 mm 5 mps 718 mmHg 24%
    16:00 +32°C° 0 mm 5 mps 717 mmHg 29%
    17:00 +30°C° 0 mm 5 mps 717 mmHg 35%
    18:00 +28°C° 0 mm 5 mps 717 mmHg 40%
    19:00 +26°C° 0 mm 3 mps 717 mmHg 47%
    20:00 +24°C° 0 mm 2 mps 718 mmHg 54%
    21:00 +21°C° 0 mm 0 mps 718 mmHg 61%
    22:00 +20°C° 0 mm 0 mps 718 mmHg 62%
    23:00 +20°C° 0 mm 0 mps 718 mmHg 63%
    Show more